Temperature
20 18 18 19 20 21 22 22 23 23 24 24 23 22 22 21 22 21 21 21 21 21 21 21 21 21 21 21 21 20 20 20 20 19 19 19 19 19 18 18 18 18 18 18
18 19 19 20 21 22 22 22 22 23 23 24 23 22 21 21 21 21 21 21 21 21 21 21 21 21 21 21 21 20 20 20 20 20 20 19 19 19 18 18 18 18 18 18
19 20 20 21 21 22 22 22 22 23 23 22 23 22 21 21 22 22 22 22 22 22 22 21 21 21 21 21 21 21 20 20 20 20 19 19 19 18 18 18 18 18 18 18
20 20 21 21 21 21 21 22 22 23 22 20 22 21 21 21 20 21 22 22 22 22 22 22 22 22 22 22 21 21 21 20 20 20 19 19 19 19 19 19 19 18 18 18
19 21 21 21 22 22 22 23 23 23 22 20 21 21 20 20 20 21 21 22 22 22 22 22 22 22 22 22 22 21 21 20 20 20 19 19 19 19 19 19 19 18 18 18
20 21 22 22 22 22 23 21 20 17 18 20 20 20 20 19 20 21 21 22 22 22 22 22 22 22 22 21 21 21 21 20 20 19 19 19 19 19 19 19 19 19 18 18
21 21 22 22 22 22 21 19 19 20 18 18 19 20 20 20 20 20 21 22 22 22 22 22 22 22 22 21 21 21 21 20 20 19 19 19 19 19 19 19 19 19 18 18
19 19 21 22 22 20 19 19 18 19 19 18 19 20 20 20 20 21 22 22 22 22 22 22 22 22 21 21 21 21 20 20 20 19 19 19 19 19 19 19 19 18 18 18
18 19 21 22 22 21 19 19 19 17 18 19 19 19 20 20 20 20 21 21 21 22 22 22 22 22 21 21 21 21 20 20 20 19 19 19 19 19 19 18 18 18 18 18
18 20 21 22 22 21 20 17 16 17 18 19 20 20 20 21 20 20 19 20 21 22 22 21 21 22 21 21 21 21 20 20 20 19 19 19 19 19 19 18 18 18 18 18
19 19 20 21 21 20 19 18 16 15 17 18 19 20 20 20 20 19 19 20 21 21 22 22 22 21 21 21 21 20 20 20 19 19 19 19 19 19 18 18 18 18 18 18
17 16 18 20 21 21 20 18 17 18 17 16 18 19 20 19 18 19 19 20 21 21 21 21 21 21 21 21 20 20 20 20 19 19 19 19 19 18 18 18 18 18 18 18
17 16 18 20 20 20 20 18 17 16 15 15 18 20 19 18 18 19 19 19 20 21 21 21 21 21 20 20 20 20 20 20 19 19 19 18 18 18 18 18 18 18 18 18
17 15 17 18 19 19 20 19 17 17 16 17 18 20 19 18 18 18 19 19 20 21 21 21 21 20 20 20 20 20 20 19 19 19 18 18 18 18 18 18 18 17 17 17
17 17 17 18 19 20 21 20 19 19 18 18 19 19 19 18 18 18 18 18 19 20 20 20 20 20 20 19 19 19 19 19 19 19 18 18 18 18 18 18 17 17 17 17
15 16 17 19 20 20 20 20 20 20 19 19 20 19 18 18 18 18 18 18 18 19 19 20 20 19 19 19 19 19 19 19 18 18 18 18 18 18 17 17 17 17 17 17
14 15 16 17 19 20 19 19 19 20 19 19 19 19 17 17 17 17 18 18 18 19 19 20 20 19 19 19 19 19 19 18 18 18 18 17 18 18 17 17 17 16 16 16
14 13 13 15 18 19 18 18 19 19 18 18 18 18 17 17 18 18 18 18 19 19 19 19 19 19 19 19 18 18 18 18 18 17 17 17 17 17 17 16 16 16 16 16
13 13 13 14 16 18 18 18 18 18 18 17 17 17 17 17 17 17 18 18 19 19 19 19 19 19 18 18 18 18 18 17 17 17 17 17 16 16 16 16 16 16 16 15
12 12 13 14 16 17 18 18 17 18 18 17 16 16 16 17 17 16 17 18 18 18 19 18 18 18 18 18 17 17 17 17 17 17 17 16 16 16 16 16 15 15 15 15
13 13 13 14 16 16 16 16 17 18 18 17 16 16 16 16 17 17 17 17 17 17 18 18 17 17 17 17 17 17 17 17 16 16 16 16 15 15 15 15 15 15 15 14
13 13 13 13 15 16 16 16 16 16 16 16 16 16 16 16 16 16 17 17 17 17 17 17 17 17 17 16 16 16 16 16 15 15 15 15 15 15 14 14 14 14 14 14
12 12 12 13 14 14 14 15 15 15 15 15 16 16 16 16 16 16 16 16 16 16 16 16 16 16 16 16 16 16 15 15 15 15 14 14 14 14 14 14 14 13 13 13
12 11 12 12 13 13 14 15 15 15 15 16 16 16 16 16 16 16 15 15 15 15 15 15 16 15 15 15 15 15 14 14 14 14 14 14 14 13 13 13 13 13 13 13
12 12 12 12 13 13 14 14 15 15 15 16 16 16 16 16 15 15 15 15 15 14 14 15 15 15 14 14 14 14 14 13 13 13 13 13 13 13 13 12 12 12 12 12
11 12 12 13 13 13 14 14 14 15 15 15 15 15 15 15 15 15 14 14 14 14 14 14 14 14 13 14 14 13 13 13 13 13 13 12 12 12 12 12 11 11 11 11
Wind_Speed
4 5 6 8 8 6 6 4 2 3 3 1 3 3 5 9 10 10 11 11 13 14 10 11 13 13 12 11 11 11 11 9 9 6 6 5 4 4 4 6 9 10 10 10
4 4 7 7 6 4 4 2 1 2 2 1 1 3 3 9 14 15 15 15 15 12 11 12 13 13 14 14 13 13 12 11 10 9 6 4 3 3 3 4 6 9 10 10
7 5 7 7 6 6 4 5 4 2 3 4 2 4 2 4 6 7 10 11 11 13 13 13 14 15 14 14 15 14 12 11 11 9 6 4 3 2 2 4 4 7 10 11
5 5 5 6 6 7 4 6 6 3 2 2 2 2 6 4 5 9 11 11 11 11 11 11 13 14 15 15 13 12 12 11 10 10 9 9 7 6 7 5 5 5 8 10
7 5 7 6 7 9 7 4 4 3 4 1 1 3 7 2 6 12 13 13 11 11 12 12 13 13 12 12 12 11 10 10 10 10 11 11 8 6 4 4 5 5 6 8
6 4 6 8 6 7 6 6 7 6 5 1 4 5 6 6 9 9 11 11 11 10 10 10 10 9 9 10 10 11 11 11 11 11 11 11 10 8 6 6 6 5 4 5
2 3 4 4 5 4 6 6 4 3 2 5 3 4 9 7 7 8 10 10 10 9 10 11 11 11 11 12 12 11 12 11 11 11 11 10 10 10 9 8 7 6 5 5
6 5 6 6 8 7 7 10 8 6 6 4 1 6 8 5 4 5 6 6 7 8 9 11 11 11 10 11 11 12 12 11 11 11 10 8 8 7 6 7 6 6 6 6
8 6 4 6 6 11 8 6 8 7 3 1 4 6 8 3 3 1 2 4 6 8 9 10 10 10 10 10 12 12 12 10 10 10 9 7 7 7 6 6 5 5 4 4
9 4 3 2 5 3 8 10 7 7 6 3 4 4 5 5 5 2 3 4 5 6 7 7 7 8 8 9 9 9 10 10 8 8 8 7 7 7 6 5 5 5 5 4
6 4 2 2 6 8 6 6 6 6 6 7 4 7 6 7 6 4 4 4 4 5 6 6 6 6 7 7 7 8 9 8 8 8 7 6 6 6 6 5 6 5 4 4
6 5 1 4 3 5 6 9 9 7 4 5 5 7 5 5 5 4 4 3 3 4 3 4 5 6 6 7 7 7 8 8 7 7 7 6 6 5 5 5 5 4 4 4
7 6 3 3 3 2 4 4 6 7 7 6 6 6 2 0 2 3 3 4 4 5 4 4 5 5 6 7 6 6 6 6 6 6 6 5 5 5 5 5 4 4 3 3
7 5 6 8 7 5 4 4 6 7 6 6 7 7 5 3 3 3 3 4 5 5 5 5 5 5 5 6 6 6 6 6 6 6 5 4 5 5 4 4 3 3 2 2
6 5 4 4 3 3 4 5 7 6 9 9 9 9 9 8 6 5 4 5 6 6 6 6 6 5 5 5 5 6 6 5 5 6 5 5 4 3 3 3 2 2 1 2
4 5 4 0 0 3 2 3 6 5 5 5 4 7 6 4 4 5 5 7 6 6 6 7 7 7 5 5 5 5 5 5 5 6 4 3 3 3 3 2 2 2 1 1
3 5 5 2 1 3 1 3 5 4 4 6 8 8 4 4 7 7 7 7 7 7 6 7 7 6 5 4 4 4 5 5 5 5 4 3 3 3 2 2 2 1 1 1
6 5 4 3 3 4 6 2 2 4 3 3 4 4 6 6 4 3 5 7 7 6 5 5 6 5 5 4 4 4 5 5 5 4 3 3 3 3 2 2 2 2 2 2
4 7 5 4 4 2 3 1 1 2 2 2 3 4 5 8 5 3 2 5 6 6 6 6 5 5 6 5 4 5 5 5 5 4 3 2 3 3 3 2 2 2 2 2
5 5 6 5 5 5 6 2 1 3 3 3 3 7 8 7 4 3 3 5 6 7 7 7 7 7 7 5 4 6 5 5 4 3 3 3 3 3 3 2 2 2 2 3
4 4 4 4 3 5 5 4 1 5 6 2 3 6 8 4 4 6 7 7 7 8 8 8 8 7 6 5 6 6 5 4 3 3 4 4 3 3 3 3 3 3 3 4
4 5 4 5 3 6 3 1 4 5 1 1 3 4 5 6 8 8 9 9 9 9 8 8 9 7 6 6 7 7 6 4 4 5 6 6 5 4 4 5 4 4 4 4
3 5 5 6 5 3 2 2 2 1 1 1 3 5 8 9 9 9 9 10 9 9 8 7 9 9 8 6 6 8 5 5 6 7 7 7 7 6 6 5 5 4 4 4
1 1 3 1 2 2 1 1 2 0 1 2 4 6 8 9 10 10 10 10 9 8 8 8 10 10 8 7 7 7 6 6 8 8 7 7 8 8 8 6 5 5 5 4
2 1 2 1 2 1 2 2 1 2 3 5 4 6 8 11 11 11 10 10 9 8 7 8 9 9 8 8 8 7 6 7 9 8 8 8 8 8 8 8 8 7 6 5
2 3 4 4 4 3 2 2 0 3 4 6 7 7 7 9 11 11 10 10 10 9 8 9 9 9 8 8 8 7 6 7 8 8 7 7 6 7 7 8 9 14 12 14
Wind_Direction
124 110 180 189 175 163 147 136 176 251 279 130 206 226 199 182 180 184 191 194 200 205 193 183 183 184 181 179 178 185 187 179 168 167 175 180 194 194 198 208 206 201 197 192
87 217 202 169 164 147 149 146 209 314 351 129 220 273 230 188 195 196 196 201 203 196 183 185 185 185 186 186 186 188 192 184 182 184 178 172 169 182 194 205 204 203 199 195
165 215 171 155 158 165 181 179 191 213 1 26 91 337 276 224 214 211 212 210 207 202 196 189 189 191 190 192 191 194 193 189 189 176 158 140 120 117 173 200 205 203 201 202
200 225 160 164 180 158 218 209 182 167 100 304 83 268 273 235 226 222 221 213 211 207 199 192 191 193 196 197 191 188 188 189 187 176 175 173 183 196 203 200 202 202 204 205
211 194 170 186 194 163 197 183 160 148 145 93 20 168 277 226 230 235 227 219 213 205 199 198 198 198 196 190 188 186 185 187 186 186 186 186 194 198 187 183 194 206 210 210
209 211 185 194 185 169 149 79 59 53 83 175 226 173 264 223 218 233 227 217 210 201 198 196 193 186 185 183 183 183 185 188 187 189 192 196 195 189 184 193 200 209 214 216
210 241 219 171 137 132 118 99 54 25 33 238 254 188 246 246 231 231 228 216 204 193 189 185 184 185 186 185 186 185 186 189 188 191 196 201 201 195 197 200 204 207 215 220
169 239 218 184 168 163 164 143 157 176 199 251 261 223 254 266 262 248 230 208 187 184 186 187 189 183 185 187 183 183 188 191 188 191 197 199 199 199 202 201 202 206 215 222
169 230 261 207 175 142 138 171 157 128 141 128 273 282 299 288 304 280 200 165 178 184 183 185 182 175 180 185 186 185 185 187 190 193 194 199 201 199 200 197 197 204 212 219
152 200 270 217 108 70 143 143 113 127 144 197 282 273 248 257 251 239 206 189 187 178 176 178 174 176 179 181 179 176 180 185 184 184 188 198 200 199 195 189 197 207 211 214
138 155 310 91 161 161 113 108 113 118 145 151 201 262 232 222 223 219 224 204 186 180 179 176 176 171 162 161 164 169 174 176 179 184 186 188 190 194 190 194 203 208 212 211
140 124 229 259 256 170 148 157 145 147 179 161 162 257 277 220 221 201 197 185 168 169 172 168 166 154 148 154 160 162 164 171 178 176 173 180 181 183 192 201 204 202 209 214
139 122 98 5 4 72 117 137 135 121 119 147 161 253 306 39 193 191 181 173 164 162 155 145 141 144 150 152 154 155 159 164 161 157 161 167 174 181 193 198 194 195 204 215
125 117 155 180 202 175 148 143 141 124 142 179 206 231 268 246 208 194 176 164 153 146 142 139 138 139 145 149 147 147 149 153 152 146 148 168 190 188 186 182 176 184 194 204
113 139 177 210 210 159 160 167 165 166 174 177 213 215 234 221 200 180 162 148 135 131 127 127 128 124 129 133 134 137 138 138 143 144 155 174 178 165 154 154 159 166 187 211
81 136 140 81 119 141 128 167 177 183 176 191 193 234 245 192 146 150 155 152 144 139 133 129 127 128 133 137 136 133 130 130 134 140 147 145 140 143 147 147 149 157 182 188
95 118 119 199 287 93 219 226 187 179 183 174 199 224 181 171 174 177 171 160 153 149 146 141 135 133 134 131 126 131 124 117 122 124 123 126 134 134 150 145 137 154 167 125
130 112 119 131 113 185 237 267 204 168 202 223 225 207 183 178 154 142 156 157 150 140 135 130 128 124 117 113 109 111 111 119 124 120 117 118 122 117 119 111 119 121 106 105
143 130 117 123 147 229 280 283 102 160 251 266 203 161 132 119 88 65 127 144 146 138 130 126 120 113 104 101 113 116 113 116 113 112 111 109 108 112 118 116 120 122 111 100
68 95 114 124 140 201 231 249 280 140 272 274 184 166 153 133 146 202 151 128 123 117 115 115 109 100 97 93 112 117 115 111 111 113 111 98 96 110 124 130 121 109 105 97
67 68 113 137 168 246 255 291 115 160 233 244 174 169 159 162 177 143 127 120 118 113 108 108 105 99 95 99 108 109 105 101 98 94 92 88 88 97 104 97 90 94 97 90
151 141 157 142 161 239 291 36 174 207 255 149 143 150 142 127 119 123 125 123 118 111 104 104 101 91 83 87 97 95 85 81 87 89 88 85 80 83 88 91 84 82 95 96
183 182 173 178 201 243 276 237 269 202 175 172 142 135 135 132 131 127 123 118 111 107 104 103 104 95 78 74 91 94 79 81 85 84 83 82 80 74 74 83 85 81 81 88
294 138 139 189 265 285 314 346 352 277 167 136 140 141 135 133 131 124 121 119 111 103 104 103 101 94 82 72 73 83 84 87 89 86 80 81 83 76 67 63 64 71 69 78
239 163 139 201 266 336 341 330 335 68 94 107 112 125 136 134 131 126 122 117 111 105 97 98 98 94 87 78 73 71 79 91 91 88 85 83 82 83 76 69 62 67 58 66
223 188 175 213 215 191 239 285 56 115 119 126 121 108 109 122 123 118 116 112 110 106 100 96 94 93 85 82 75 65 70 90 98 94 88 87 88 87 87 87 76 60 63 62
Height
1475 1482 1489 1487 1486 1488 1491 1495 1499 1495 1488 1489 1491 1492 1490 1491 1493 1496 1498 1500 1502 1502 1507 1512 1515 1519 1523 1527 1530 1533 1536 1539 1541 1544 1547 1550 1552 1555 1558 1560 1562 1563 1565 1567
1480 1484 1480 1481 1483 1485 1489 1495 1497 1493 1488 1489 1493 1493 1489 1489 1489 1491 1493 1496 1497 1501 1505 1508 1512 1516 1519 1523 1527 1530 1533 1536 1539 1542 1545 1548 1551 1554 1556 1559 1560 1562 1564 1565
1479 1478 1475 1479 1484 1488 1490 1494 1495 1495 1492 1490 1494 1499 1494 1490 1490 1492 1493 1494 1496 1498 1501 1504 1508 1512 1516 1519 1523 1527 1530 1534 1537 1540 1543 1546 1549 1552 1554 1555 1557 1560 1562 1563
1475 1472 1474 1478 1482 1485 1494 1486 1488 1491 1499 1507 1500 1516 1499 1493 1491 1490 1489 1491 1493 1496 1499 1502 1505 1509 1512 1516 1520 1524 1528 1531 1535 1538 1540 1543 1545 1547 1550 1553 1555 1557 1559 1561
1474 1471 1473 1477 1478 1479 1484 1481 1485 1489 1498 1508 1505 1513 1506 1494 1494 1488 1485 1486 1489 1492 1496 1499 1502 1506 1510 1514 1518 1521 1525 1528 1532 1535 1537 1540 1542 1545 1548 1551 1553 1554 1556 1558
1468 1466 1467 1470 1470 1473 1477 1484 1492 1501 1507 1520 1509 1513 1508 1496 1487 1482 1480 1482 1484 1488 1492 1495 1500 1504 1507 1511 1514 1518 1522 1525 1528 1531 1534 1537 1540 1542 1545 1547 1549 1551 1553 1555
1470 1467 1464 1465 1471 1474 1479 1498 1516 1518 1528 1524 1507 1508 1503 1483 1479 1477 1476 1477 1480 1484 1488 1491 1495 1499 1503 1506 1510 1513 1517 1520 1524 1527 1530 1533 1537 1540 1541 1544 1546 1548 1549 1551
1479 1480 1465 1463 1468 1476 1481 1491 1514 1524 1527 1521 1508 1508 1492 1476 1475 1474 1474 1475 1478 1481 1484 1487 1490 1494 1498 1502 1506 1509 1513 1516 1520 1523 1527 1530 1533 1536 1538 1540 1542 1544 1546 1547
1478 1477 1461 1459 1459 1467 1482 1489 1489 1509 1514 1517 1512 1502 1485 1475 1474 1473 1472 1473 1475 1478 1481 1484 1487 1491 1495 1498 1502 1505 1509 1513 1516 1519 1522 1526 1529 1531 1534 1536 1539 1541 1542 1544
1465 1472 1462 1457 1459 1464 1469 1480 1496 1508 1521 1522 1510 1504 1496 1479 1476 1473 1472 1472 1473 1476 1479 1482 1485 1488 1492 1496 1499 1503 1506 1509 1512 1515 1518 1522 1526 1528 1531 1533 1535 1537 1539 1540
1459 1470 1467 1462 1465 1470 1475 1482 1491 1504 1507 1520 1520 1507 1478 1475 1473 1472 1472 1472 1473 1475 1478 1480 1483 1486 1489 1494 1497 1500 1503 1507 1510 1512 1516 1519 1522 1525 1527 1529 1531 1533 1535 1536
1459 1471 1477 1468 1460 1458 1463 1473 1485 1498 1507 1509 1512 1504 1471 1471 1470 1471 1472 1473 1474 1476 1478 1479 1482 1485 1488 1492 1495 1498 1501 1504 1507 1511 1514 1517 1520 1522 1524 1526 1528 1530 1531 1532
1457 1471 1482 1478 1473 1466 1466 1471 1475 1486 1501 1510 1510 1496 1470 1470 1470 1470 1471 1472 1474 1475 1477 1479 1481 1484 1487 1490 1493 1496 1500 1503 1506 1508 1511 1514 1517 1519 1521 1523 1524 1526 1527 1528
1451 1468 1476 1482 1476 1468 1468 1470 1474 1481 1497 1502 1496 1485 1474 1471 1470 1470 1471 1472 1473 1474 1476 1478 1481 1483 1486 1489 1492 1496 1499 1501 1504 1506 1508 1511 1514 1516 1518 1520 1521 1522 1523 1525
1450 1465 1465 1465 1461 1461 1462 1466 1470 1473 1479 1486 1482 1480 1471 1467 1467 1469 1471 1472 1473 1474 1476 1479 1481 1483 1486 1489 1491 1495 1498 1500 1502 1504 1506 1508 1511 1514 1515 1517 1518 1520 1521 1522
1454 1462 1464 1464 1460 1460 1463 1463 1466 1467 1470 1472 1471 1472 1464 1464 1466 1468 1470 1471 1473 1474 1476 1479 1481 1483 1487 1489 1491 1494 1496 1499 1501 1503 1505 1507 1509 1511 1513 1514 1516 1517 1518 1519
1459 1463 1470 1474 1465 1463 1472 1465 1464 1464 1464 1466 1470 1465 1462 1463 1464 1466 1468 1470 1472 1474 1477 1479 1481 1484 1487 1489 1492 1494 1496 1498 1501 1502 1504 1506 1508 1509 1511 1513 1514 1515 1516 1517
1458 1465 1473 1476 1471 1481 1471 1459 1459 1461 1461 1460 1459 1459 1460 1461 1463 1466 1468 1469 1472 1475 1478 1480 1482 1485 1487 1490 1492 1494 1496 1498 1500 1502 1503 1505 1506 1507 1510 1511 1512 1513 1514 1514
1453 1461 1473 1481 1480 1474 1465 1459 1460 1462 1462 1459 1458 1458 1460 1462 1465 1468 1469 1471 1473 1476 1478 1481 1484 1486 1488 1490 1492 1495 1497 1498 1500 1501 1502 1503 1505 1506 1508 1509 1510 1511 1512 1513
1456 1459 1470 1478 1478 1480 1467 1457 1457 1460 1464 1457 1457 1457 1459 1461 1468 1469 1469 1471 1474 1476 1479 1481 1484 1486 1488 1489 1493 1494 1496 1498 1499 1500 1502 1503 1504 1505 1507 1508 1509 1510 1510 1511
1463 1466 1471 1475 1476 1471 1459 1455 1456 1469 1464 1455 1455 1456 1458 1460 1462 1465 1469 1472 1475 1477 1480 1482 1484 1486 1488 1490 1492 1494 1496 1497 1499 1500 1501 1502 1504 1505 1506 1507 1507 1508 1509 1509
1464 1468 1472 1474 1476 1473 1456 1455 1458 1458 1454 1454 1455 1457 1458 1459 1462 1465 1469 1472 1475 1478 1480 1483 1485 1487 1489 1491 1493 1494 1496 1497 1499 1500 1501 1502 1503 1504 1505 1506 1506 1507 1507 1508
1461 1462 1463 1465 1466 1458 1455 1455 1454 1454 1453 1454 1455 1457 1458 1460 1463 1466 1469 1473 1476 1479 1482 1484 1486 1488 1490 1493 1494 1495 1497 1498 1499 1500 1501 1502 1504 1504 1505 1505 1506 1506 1507 1507
1458 1457 1459 1460 1457 1455 1454 1454 1453 1453 1453 1454 1455 1457 1458 1461 1464 1467 1470 1474 1477 1481 1483 1485 1487 1489 1491 1493 1495 1496 1498 1499 1500 1501 1502 1503 1504 1504 1505 1505 1506 1506 1507 1507
1457 1457 1458 1458 1456 1454 1454 1454 1453 1453 1453 1454 1456 1458 1459 1462 1465 1468 1471 1475 1478 1482 1485 1487 1489 1491 1493 1495 1496 1498 1499 1500 1501 1502 1503 1504 1504 1505 1506 1506 1507 1507 1508 1509
1455 1456 1457 1456 1454 1454 1454 1454 1454 1453 1453 1454 1456 1459 1461 1463 1466 1470 1473 1477 1480 1484 1487 1489 1491 1493 1495 1496 1498 1499 1501 1502 1503 1503 1504 1505 1506 1507 1508 1508 1509 1510 1511 1511